STARLINK-3880, 52334

Orbit data source: Space-Track

STARLINK-3880, 52334 is a payload satellite owned by SpaceX/Seattle (US) in LEO that was launched on Fri, 29 Apr 2022 UTC via an FALCON 9 launch vehicle from the Air Force Eastern Test Range (AFETR). Payload-class satellites include a variety of spacecraft equipped with specific instruments for various scientific and technological missions. These include communications satellites like Starlink; space stations such as the ISS; scientific satellites like the Hubble; Earth observation satellites from companies like Planet Labs, Umbra, and HawkEye 360; GPS; miniature CubeSats for education and research; and military/defense satellites.

Loading next visibility...
Identifier
52334, 2022-045D
Orbit
LEO
Country
Flag of USUS
Related business
Manufacturer
SpaceX/Seattle
Mission
Operational Commercial Communications
Bus & Motor
STARLINK, Unknown motor
Mass
297 kg wet, ~275 kg dry
Launch date (UTC)
2022-04-29 (4 years ago)
Launch vehicle
FALCON 9
Launch site
Air Force Eastern Test Range (AFETR)
Object type
Payload
Rocket body
Debris
Shape & HBR
Box + 1 Pan, 10.1 m
Radar Cross Section
11.087 m², Large (>1 m²)

Expand to show TLE details & history
Last TLE update: 3 days ago

TLE from 3 days ago
0 STARLINK-3880
1 52334U 22045D   26170.85227700  .00000557  00000-0  53060-4 0  9992
2 52334  53.1601 110.3853 0001340  85.6188 274.4957 15.08840984231056
Epoch: 2026-06-19T20:27Z
TLE epoch observation values (Epoch: 2026-06-19T20:27:16.732Z)
Latitude
Longitude
-104.50972°
Altitude
540.559 km
Speed
7.593 km/s
True Right ascension
07h 21m 32s
True Declination
0° 00' 00"
Sunlit
Object was in daylight at epoch
Visualization orbit readout
Latitude
Unknown
Longitude
Unknown
Altitude
Unknown
Speed
Unknown
Apparent Right ascension
Unknown
Apparent Declination
Unknown
Sunlit
N/A
Visualization observer readout
Local Sidereal Time
21:42:20
Azimuth
Unknown
Elevation
Unknown
Doppler factor
Unknown
Orbital elements
Apogee altitude
540.922 km
Perigee altitude
539.067 km
Semi-major axis
6,918.131 km
Eccentricity
0.00013
Inclination
53.1601°
RAAN
110.3853°
Arg. of periapsis
85.6188°
True anomaly
274.48039°
Mean anomaly
274.4957°
Eccentric anomaly
274.48805°
Mean motion
3.7719 °/min
Orbital period
95.44 mins
BSTAR
0.00005306
Loading maneuver chart data...
Computing Atmospheric mass density...
Loading historical data...
Loading historical data...
Loading historical data...
Loading historical data...
Loading historical data...
Loading historical data...
Loading historical data...

Documentation

Showing up to 5 results
|